Regional Weather Roundup
Issued by NWS Newport/Morehead, NC

Current Version | Previous Version | Graphics & Text | Print | Product List | Glossary Off
Versions: 1 2 3 4 5 6 7 8 9 10 11 12 13 14 15 16 17 18 19 20 21 22 23 24 25 26 27 28 29 30 31 32 33 34 35 36 37 38 39 40 41 42 43 44 45 46 47 48 49 50
000 ASUS42 KMHX 031313 RWRMHX WEATHER ROUNDUP FOR EASTERN NORTH CAROLINA NATIONAL WEATHER SERVICE NEWPORT/MOREHEAD CITY NC 900 AM EDT THU SEP 03 2015 NOTE: "FAIR" INDICATES FEW OR NO CLOUDS BELOW 12,000 FEET WITH NO SIGNIFICANT WEATHER AND/OR OBSTRUCTIONS TO VISIBILITY NCZ015>017-031-032-045>047-102-103-031400- NORTH COAST CITY SKY/WX TMP DP RH WIND PRES REMARKS EDENTON N/A 71 69 94 CALM 29.94S ELIZABETH CITY SUNNY 74 70 87 W6 29.93S KITTY HAWK MOSUNNY 78 71 78 W6 29.91S MANTEO MOSUNNY 76 71 83 NW5 29.93S $$ NCZ045>047-081-094-103-104-031400- CENTRAL COAST CITY SKY/WX TMP DP RH WIND PRES REMARKS FRISCO MOSUNNY 79 72 79 VRB3 29.93S SWANQUARTER N/A 75 N/A N/A N6 29.91S $$ NCZ095-097-098-100-101-031400- SOUTHERN COAST CITY SKY/WX TMP DP RH WIND PRES REMARKS BEAUFORT SUNNY 76 72 87 NE3 29.93S CEDAR ISLAND N/A 79 N/A N/A NW8 29.97S JACKSONVILLE MOSUNNY 78 72 81 N5 29.93R PINEY ISLAND SUNNY N/A N/A N/A NW7 29.94R WILMINGTON MOSUNNY 80 72 76 S6 29.93R $$ NCZ011>013-027>030-043-044-078>080-089-090>093-098-031400- COASTAL PLAIN CITY SKY/WX TMP DP RH WIND PRES REMARKS AHOSKIE FOG 68 67 98 CALM 29.95S VSB 1/2 CLINTON PTSUNNY 73 72 95 N3 29.96R ELIZABETHTOWN MOSUNNY 75 72 88 CALM 29.96R GOLDSBORO PTSUNNY 72 71 96 NW3 29.95R GREENVILLE CLOUDY 70 70 100 NW3 29.97S FOG HAVELOCK MOSUNNY 77 70 79 NW6 29.94R KENANSVILLE N/A 71 70 98 N5 29.97R KINSTON NOT AVBL NEW BERN SUNNY 75 69 81 CALM 29.95R RICHLANDS MOSUNNY 73 68 83 NW7 29.95R ROCKY MOUNT MOSUNNY 72 69 90 N5 29.96R FOG WASHINGTON CLOUDY 69 68 98 CALM 29.95R FOG WHITEVILLE SUNNY 77 73 87 SW6 29.95R $$ AMZ130-135-150-152-154-156-158-170-250-252-270-ANZ085-086-088-633-658-670-031400- MARINE OBSERVATIONS STATION/POSITION TIME TEMP WIND PRES WAVE SWELL AIR SEA DIR/SP/G HT/PER HT/PER (UTC) (F) (DEG/KT/KT) (MB) (FT/S) (FT/S) CHESAPEAKE LIGHT 1300 79 300/ 12/ 13 1013.7 64 E VA BEACH 1250 78 78 310/ 10/ 12 1012.4 2/ 4 2/ 9 DUCK 1218 74 80 300/ 6/ 7 1012.4 2 E DUCK 1211 80 N/A 1/ 9 OREGON INLET 1200 330/ 5/ 7 N/A 13E OREGON INLT 1300 80 N/A 2/13 HATTERAS CG 1200 360/ 8/ 10 N/A DIAMOND BUOY 1250 79 85 10/ 10/ 12 1013.4 2/ 9 2/ 9 CAPE LOOKOUT 1300 76 40/ 6/ 7 1013.5 BEAUFORT LAB 1200 50/ 4/ 5 N/A 30 SE NEW RVR IN 1208 80 81 30/ 2/ 4 1013.4 30 SE NEW RVR IN 1225 81 N/A 2/ 8 27 SE WRIGHTSVLE 1200 77 82 220/ 2/ 2 N/A 5 SE WRIGHTSVLE 1208 80 82 190/ 6/ 8 1013.0 225 S CAPE HAT 1250 83 83 310/ 6/ 8 1014.1 2/12 2/12 41 SE CHARLESTON 1250 82 84 350/ 2/ 4 1014.2 2/ 7 2/ 7 $$

USA.gov is the U.S. government's official web portal to all federal, state and local government web resources and services.